timestamp,wind_dir_avg,wind_spd_avg,wind_spd_max_dir,wind_spd_gust,battery_voltage,lat,long
2021-02-02 00:04:01+00:00,342.0,9.37,340.0,10.57,12.49,47.59359,-54.27349
2021-02-02 00:14:01+00:00,349.0,7.82,347.0,8.51,12.41,47.59359,-54.27349
2021-02-02 00:24:01+00:00,346.0,8.97,345.0,10.61,12.41,47.59359,-54.27349
2021-02-02 00:34:01+00:00,340.0,6.97,335.0,8.15,12.41,47.59359,-54.27349
2021-02-02 00:44:01+00:00,354.0,6.77,354.0,7.48,12.41,47.59359,-54.27349
2021-02-02 00:54:01+00:00,3.0,6.95,8.0,9.15,12.41,47.59359,-54.27349
2021-02-02 01:04:01+00:00,4.0,7.36,6.0,9.5,12.41,47.59359,-54.27349
2021-02-02 01:14:01+00:00,8.0,7.6,8.0,8.73,12.41,47.59359,-54.27349
2021-02-02 01:24:01+00:00,12.0,5.56,12.0,6.69,12.41,47.59359,-54.27349
2021-02-02 01:34:01+00:00,12.0,5.06,15.0,6.09,12.41,47.59359,-54.27349
2021-02-02 01:44:01+00:00,8.0,6.59,14.0,8.12,12.41,47.59359,-54.27349
2021-02-02 01:54:01+00:00,20.0,5.88,20.0,6.95,12.41,47.59359,-54.27349
2021-02-02 02:04:01+00:00,1.0,9.0,1.0,10.13,12.41,47.59359,-54.27349
2021-02-02 02:14:01+00:00,13.0,7.99,15.0,8.92,12.41,47.59359,-54.27349
2021-02-02 02:24:01+00:00,353.0,6.98,350.0,8.34,12.41,47.59359,-54.27349
2021-02-02 02:34:01+00:00,7.0,5.0,4.0,6.5,12.41,47.59359,-54.27349
2021-02-02 02:44:01+00:00,2.0,5.41,9.0,6.94,12.41,47.59359,-54.27349
2021-02-02 02:54:01+00:00,0.0,6.16,359.0,6.97,12.41,47.59359,-54.27349
2021-02-02 03:04:01+00:00,358.0,3.89,357.0,4.76,12.41,47.59359,-54.27349
2021-02-02 03:14:01+00:00,0.0,6.55,5.0,7.91,12.41,47.59359,-54.27349
2021-02-02 03:24:01+00:00,347.0,5.14,338.0,6.04,12.41,47.59359,-54.27349
2021-02-02 03:34:01+00:00,327.0,4.54,325.0,5.25,12.41,47.59359,-54.27349
2021-02-02 03:44:01+00:00,330.0,4.71,330.0,5.47,12.41,47.59359,-54.27349
2021-02-02 03:54:01+00:00,328.0,5.16,329.0,6.01,12.41,47.59359,-54.27349
2021-02-02 04:04:01+00:00,323.0,4.85,323.0,5.84,12.41,47.59359,-54.27349
2021-02-02 04:14:01+00:00,355.0,5.4,3.0,6.25,12.33,47.59359,-54.27349
2021-02-02 04:24:01+00:00,357.0,5.15,356.0,5.86,12.33,47.59359,-54.27349
2021-02-02 04:34:01+00:00,350.0,5.22,356.0,6.28,12.33,47.59359,-54.27349
2021-02-02 04:44:01+00:00,355.0,5.37,358.0,6.19,12.33,47.59359,-54.27349
2021-02-02 04:54:01+00:00,357.0,5.19,354.0,6.18,12.33,47.59359,-54.27349
2021-02-02 05:04:01+00:00,351.0,3.99,356.0,4.98,12.33,47.59359,-54.27349
2021-02-02 05:14:01+00:00,331.0,5.89,332.0,6.75,12.33,47.59359,-54.27349
2021-02-02 05:24:01+00:00,328.0,5.66,314.0,7.13,12.33,47.59359,-54.27349
2021-02-02 05:34:01+00:00,347.0,6.06,348.0,6.73,12.33,47.59359,-54.27349
2021-02-02 05:44:01+00:00,2.0,5.55,6.0,6.69,12.33,47.59359,-54.27349
2021-02-02 05:54:01+00:00,350.0,5.66,350.0,6.41,12.33,47.59359,-54.27349
2021-02-02 06:04:01+00:00,3.0,5.62,6.0,6.29,12.33,47.59359,-54.27349
2021-02-02 06:14:01+00:00,1.0,5.46,359.0,6.21,12.33,47.59359,-54.27349
2021-02-02 06:24:01+00:00,352.0,4.47,350.0,5.04,12.33,47.59359,-54.27349
2021-02-02 06:34:01+00:00,359.0,4.59,359.0,5.25,12.33,47.59359,-54.27349
2021-02-02 06:44:01+00:00,356.0,6.24,358.0,7.3,12.33,47.59359,-54.27349
2021-02-02 06:54:01+00:00,4.0,5.49,3.0,6.78,12.33,47.59359,-54.27349
2021-02-02 07:04:01+00:00,358.0,6.66,357.0,7.53,12.33,47.59359,-54.27349
2021-02-02 07:14:01+00:00,0.0,7.18,3.0,8.93,12.25,47.59359,-54.27349
2021-02-02 07:24:01+00:00,350.0,6.76,324.0,8.4,12.25,47.59359,-54.27349
2021-02-02 07:34:01+00:00,356.0,4.99,6.0,6.28,12.25,47.59359,-54.27349
2021-02-02 07:44:01+00:00,11.0,4.14,12.0,5.04,12.25,47.59359,-54.27349
2021-02-02 07:54:01+00:00,346.0,5.39,316.0,6.71,12.25,47.59359,-54.27349
2021-02-02 08:04:01+00:00,344.0,3.13,308.0,4.14,12.25,47.59359,-54.27349
2021-02-02 08:14:01+00:00,9.0,2.83,11.0,3.78,12.25,47.59359,-54.27349
2021-02-02 08:24:01+00:00,322.0,4.33,312.0,5.48,12.25,47.59359,-54.27349
2021-02-02 08:34:01+00:00,0.0,2.61,358.0,3.21,12.25,47.59359,-54.27349
2021-02-02 08:44:01+00:00,344.0,3.47,310.0,4.38,12.25,47.59359,-54.27349
2021-02-02 08:54:01+00:00,9.0,3.74,12.0,4.92,12.25,47.59359,-54.27349
2021-02-02 09:04:01+00:00,347.0,3.83,347.0,4.59,12.25,47.59359,-54.27349
2021-02-02 09:14:01+00:00,347.0,4.25,355.0,5.33,12.25,47.59359,-54.27349
2021-02-02 09:24:01+00:00,0.0,4.98,359.0,6.15,12.25,47.59359,-54.27349
2021-02-02 09:34:01+00:00,9.0,3.87,7.0,4.64,12.25,47.59359,-54.27349
2021-02-02 09:44:01+00:00,43.0,3.41,52.0,4.24,12.25,47.59359,-54.27349
2021-02-02 09:54:01+00:00,35.0,3.86,39.0,5.0,12.25,47.59359,-54.27349
2021-02-02 10:04:01+00:00,58.0,4.42,58.0,5.07,12.25,47.59359,-54.27349
2021-02-02 10:14:01+00:00,27.0,2.37,22.0,3.47,12.25,47.59359,-54.27349
2021-02-02 10:24:01+00:00,346.0,2.45,347.0,2.98,12.25,47.59359,-54.27349
2021-02-02 10:34:01+00:00,251.0,1.28,249.0,2.22,12.25,47.59359,-54.27349
2021-02-02 10:44:01+00:00,305.0,2.17,311.0,3.03,12.25,47.59359,-54.27349
2021-02-02 10:54:01+00:00,56.0,2.86,62.0,4.02,12.25,47.59359,-54.27349
2021-02-02 11:04:01+00:00,48.0,1.34,52.0,1.96,12.25,47.59359,-54.27349
2021-02-02 11:14:01+00:00,72.0,2.63,73.0,3.66,12.25,47.59359,-54.27349
2021-02-02 11:24:01+00:00,70.0,3.03,64.0,4.11,12.25,47.59359,-54.27349
2021-02-02 11:34:01+00:00,16.0,1.56,2.0,2.33,12.25,47.59359,-54.27349
2021-02-02 11:44:01+00:00,90.0,2.88,81.0,4.23,12.25,47.59359,-54.27349
2021-02-02 11:54:01+00:00,56.0,3.88,53.0,4.65,12.25,47.59359,-54.27349
2021-02-02 12:04:01+00:00,76.0,3.2,63.0,5.16,12.25,47.59359,-54.27349
2021-02-02 12:14:01+00:00,49.0,4.59,53.0,5.26,13.05,47.59359,-54.27349
2021-02-02 12:24:01+00:00,74.0,2.77,70.0,5.09,13.05,47.59359,-54.27349
2021-02-02 12:34:01+00:00,110.0,2.12,131.0,3.51,13.05,47.59359,-54.27349
2021-02-02 12:44:01+00:00,73.0,3.72,73.0,5.28,13.05,47.59359,-54.27349
2021-02-02 12:54:01+00:00,65.0,4.46,63.0,4.96,13.05,47.59359,-54.27349
2021-02-02 13:04:01+00:00,70.0,3.83,71.0,4.85,13.05,47.59359,-54.27349
2021-02-02 13:14:01+00:00,56.0,3.52,57.0,4.53,13.68,47.59359,-54.27349
2021-02-02 13:24:01+00:00,59.0,3.96,63.0,4.56,13.68,47.59359,-54.27349
2021-02-02 13:34:01+00:00,81.0,2.62,69.0,4.19,13.68,47.59359,-54.27349
2021-02-02 13:44:01+00:00,57.0,4.59,56.0,5.26,13.68,47.59359,-54.27349
2021-02-02 13:54:01+00:00,62.0,2.6,51.0,3.52,13.68,47.59359,-54.27349
2021-02-02 14:04:01+00:00,52.0,3.57,51.0,4.64,13.68,47.59359,-54.27349
2021-02-02 14:14:01+00:00,57.0,3.48,55.0,4.71,13.68,47.59359,-54.27349
2021-02-02 14:24:01+00:00,62.0,3.33,63.0,4.66,13.68,47.59359,-54.27349
2021-02-02 14:34:01+00:00,50.0,3.7,53.0,4.35,13.68,47.59359,-54.27349
2021-02-02 14:44:01+00:00,73.0,2.68,60.0,4.35,13.68,47.59359,-54.27349
2021-02-02 14:54:01+00:00,72.0,2.12,63.0,3.17,13.68,47.59359,-54.27349
2021-02-02 15:04:01+00:00,109.0,2.18,129.0,3.2,13.68,47.59359,-54.27349
2021-02-02 15:14:01+00:00,118.0,2.09,113.0,3.07,14.32,47.59359,-54.27349
2021-02-02 15:24:01+00:00,116.0,2.06,130.0,3.55,14.32,47.59359,-54.27349
2021-02-02 15:34:01+00:00,95.0,2.12,129.0,3.14,14.32,47.59359,-54.27349
2021-02-02 15:44:01+00:00,70.0,1.96,52.0,2.79,14.32,47.59359,-54.27349
2021-02-02 15:54:01+00:00,93.0,1.45,98.0,3.23,14.32,47.59359,-54.27349
2021-02-02 16:04:01+00:00,80.0,2.13,84.0,3.13,14.32,47.59359,-54.27349
2021-02-02 16:14:01+00:00,121.0,1.75,123.0,2.73,14.24,47.59359,-54.27349
2021-02-02 16:24:01+00:00,128.0,1.84,134.0,2.4,14.24,47.59359,-54.27349
2021-02-02 16:34:01+00:00,90.0,2.13,93.0,3.64,14.24,47.59359,-54.27349
2021-02-02 16:44:01+00:00,128.0,3.32,128.0,3.87,14.24,47.59359,-54.27349
2021-02-02 16:54:01+00:00,107.0,2.11,125.0,3.38,14.24,47.59359,-54.27349
2021-02-02 17:04:01+00:00,73.0,2.63,68.0,3.84,14.24,47.59359,-54.27349
2021-02-02 17:14:01+00:00,92.0,1.66,104.0,3.24,13.84,47.59359,-54.27349
2021-02-02 17:24:01+00:00,63.0,2.8,57.0,3.63,13.84,47.59359,-54.27349
2021-02-02 17:34:01+00:00,78.0,2.56,74.0,3.58,13.84,47.59359,-54.27349
2021-02-02 17:44:01+00:00,104.0,2.42,116.0,3.73,13.84,47.59359,-54.27349
2021-02-02 17:54:01+00:00,61.0,3.16,64.0,3.62,13.84,47.59359,-54.27349
2021-02-02 18:04:01+00:00,75.0,2.9,70.0,4.06,13.84,47.59359,-54.27349
2021-02-02 18:14:01+00:00,70.0,2.87,63.0,4.13,13.84,47.59359,-54.27349
2021-02-02 18:24:01+00:00,100.0,2.06,64.0,3.0,13.84,47.59359,-54.27349
2021-02-02 18:34:01+00:00,69.0,3.13,60.0,4.81,13.84,47.59359,-54.27349
2021-02-02 18:44:01+00:00,63.0,3.85,51.0,4.74,13.84,47.59359,-54.27349
2021-02-02 18:54:01+00:00,70.0,3.67,70.0,4.94,13.84,47.59359,-54.27349
2021-02-02 19:04:01+00:00,61.0,3.48,69.0,5.66,13.84,47.59359,-54.27349
2021-02-02 19:14:01+00:00,110.0,2.93,109.0,4.27,13.76,47.59359,-54.27349
2021-02-02 19:24:01+00:00,50.0,3.86,56.0,4.23,13.76,47.59359,-54.27349
2021-02-02 19:34:01+00:00,72.0,1.9,62.0,2.53,13.76,47.59359,-54.27349
2021-02-02 19:44:01+00:00,119.0,3.37,128.0,4.52,13.76,47.59359,-54.27349
2021-02-02 19:54:01+00:00,107.0,3.17,123.0,4.5,13.76,47.59359,-54.27349
2021-02-02 20:04:01+00:00,84.0,3.31,81.0,4.96,13.76,47.59359,-54.27349
2021-02-02 20:14:01+00:00,83.0,2.97,47.0,4.39,13.29,47.59359,-54.27349
2021-02-02 20:24:01+00:00,100.0,3.76,114.0,6.37,13.29,47.59359,-54.27349
2021-02-02 20:34:01+00:00,79.0,3.66,78.0,4.87,13.29,47.59359,-54.27349
2021-02-02 20:44:01+00:00,92.0,4.22,95.0,5.89,13.29,47.59359,-54.27349
2021-02-02 20:54:01+00:00,94.0,3.69,86.0,5.37,13.29,47.59359,-54.27349
2021-02-02 21:04:01+00:00,107.0,3.65,133.0,5.52,13.29,47.59359,-54.27349
2021-02-02 21:14:01+00:00,92.0,3.25,103.0,5.55,12.65,47.59359,-54.27349
2021-02-02 21:24:01+00:00,92.0,4.04,127.0,6.17,12.65,47.59359,-54.27349
2021-02-02 21:34:01+00:00,97.0,4.05,75.0,7.35,12.65,47.59359,-54.27349
2021-02-02 21:44:01+00:00,95.0,3.98,75.0,6.93,12.65,47.59359,-54.27349
2021-02-02 21:54:01+00:00,91.0,4.16,94.0,7.66,12.65,47.59359,-54.27349
2021-02-02 22:04:01+00:00,95.0,4.21,94.0,6.65,12.65,47.59359,-54.27349
2021-02-02 22:14:01+00:00,86.0,3.03,140.0,5.5,12.57,47.59359,-54.27349
2021-02-02 22:24:01+00:00,101.0,3.94,99.0,6.5,12.57,47.59359,-54.27349
2021-02-02 22:34:01+00:00,103.0,3.82,96.0,5.68,12.57,47.59359,-54.27349
2021-02-02 22:44:01+00:00,98.0,3.66,134.0,5.88,12.57,47.59359,-54.27349
2021-02-02 22:54:01+00:00,98.0,4.78,91.0,7.67,12.57,47.59359,-54.27349
2021-02-02 23:04:01+00:00,119.0,5.56,87.0,7.45,12.57,47.59359,-54.27349
2021-02-02 23:14:01+00:00,101.0,5.12,91.0,6.91,12.49,47.59359,-54.27349
2021-02-02 23:24:01+00:00,106.0,3.72,111.0,5.49,12.49,47.59359,-54.27349
2021-02-02 23:34:01+00:00,103.0,3.58,74.0,5.95,12.49,47.59359,-54.27349
2021-02-02 23:44:01+00:00,122.0,5.53,114.0,8.21,12.49,47.59359,-54.27349
2021-02-02 23:54:01+00:00,124.0,7.38,115.0,9.07,12.49,47.59359,-54.27349
